TimeEST,TemperatureF,Dew PointF,Humidity,Sea Level PressureIn,VisibilityMPH,Wind Direction,Wind SpeedMPH,Gust SpeedMPH,PrecipitationIn,Events,Conditions,WindDirDegrees,DateUTC
12:15 AM,46.4,46.4,100,30.39,10.0,NE,4.6,-,N/A,,Clear,40,2011-11-07 05:15:00
12:35 AM,46.4,46.4,100,30.39,10.0,NE,4.6,-,N/A,,Clear,50,2011-11-07 05:35:00
12:55 AM,48.2,48.2,100,30.39,10.0,NE,5.8,-,N/A,,Clear,50,2011-11-07 05:55:00
1:15 AM,46.4,46.4,100,30.39,10.0,ENE,4.6,-,N/A,,Clear,60,2011-11-07 06:15:00
1:35 AM,48.2,48.2,100,30.38,10.0,NE,5.8,-,N/A,,Clear,50,2011-11-07 06:35:00
1:55 AM,48.2,48.2,100,30.38,10.0,NE,5.8,-,N/A,,Clear,50,2011-11-07 06:55:00
2:15 AM,50.0,50.0,100,30.38,10.0,ENE,3.5,-,N/A,,Clear,60,2011-11-07 07:15:00
2:35 AM,50.0,50.0,100,30.38,10.0,Calm,Calm,-,N/A,,Clear,0,2011-11-07 07:35:00
2:55 AM,48.2,48.2,100,30.38,10.0,Calm,Calm,-,N/A,,Clear,0,2011-11-07 07:55:00
3:15 AM,50.0,50.0,100,30.38,10.0,ENE,3.5,-,N/A,,Clear,60,2011-11-07 08:15:00
3:35 AM,48.2,48.2,100,30.37,10.0,Calm,Calm,-,N/A,,Clear,0,2011-11-07 08:35:00
3:55 AM,48.2,48.2,100,30.38,10.0,Calm,Calm,-,N/A,,Clear,0,2011-11-07 08:55:00
4:15 AM,48.2,-9999,N/A,30.37,10.0,Calm,Calm,-,N/A,,Clear,0,2011-11-07 09:15:00
4:35 AM,46.4,-9999,N/A,30.38,10.0,NE,3.5,-,N/A,,Clear,50,2011-11-07 09:35:00
4:55 AM,46.4,-9999,N/A,30.38,10.0,NE,3.5,-,N/A,,Clear,40,2011-11-07 09:55:00
5:15 AM,46.4,-9999,N/A,30.39,10.0,NE,3.5,-,N/A,,Clear,50,2011-11-07 10:15:00
5:35 AM,46.4,-9999,N/A,30.39,10.0,Calm,Calm,-,N/A,,Clear,0,2011-11-07 10:35:00
5:55 AM,46.4,-9999,N/A,30.39,10.0,Calm,Calm,-,N/A,,Clear,0,2011-11-07 10:55:00
6:15 AM,46.4,-9999,N/A,30.39,10.0,North,3.5,-,N/A,,Clear,360,2011-11-07 11:15:00
6:35 AM,44.6,-9999,N/A,30.39,10.0,Calm,Calm,-,N/A,,Clear,0,2011-11-07 11:35:00
6:55 AM,44.6,-9999,N/A,30.40,10.0,Calm,Calm,-,N/A,,Clear,0,2011-11-07 11:55:00
7:15 AM,44.6,-9999,N/A,30.40,10.0,NNE,3.5,-,N/A,,Clear,20,2011-11-07 12:15:00
7:35 AM,46.4,-9999,N/A,30.41,10.0,Calm,Calm,-,N/A,,Clear,0,2011-11-07 12:35:00
8:15 AM,51.8,51.8,100,30.41,10.0,NNE,4.6,-,N/A,,Clear,30,2011-11-07 13:15:00
8:35 AM,53.6,53.6,100,30.41,10.0,NE,6.9,-,N/A,,Clear,40,2011-11-07 13:35:00
8:55 AM,55.4,53.6,94,30.41,10.0,NE,8.1,-,N/A,,Clear,50,2011-11-07 13:55:00
9:15 AM,55.4,53.6,94,30.41,10.0,NE,6.9,-,N/A,,Clear,50,2011-11-07 14:15:00
9:35 AM,59.0,51.8,77,30.41,10.0,NE,6.9,-,N/A,,Clear,50,2011-11-07 14:35:00
10:35 AM,64.4,53.6,68,30.41,10.0,ENE,6.9,-,N/A,,Clear,60,2011-11-07 15:35:00
10:55 AM,66.2,53.6,64,30.40,10.0,ENE,5.8,-,N/A,,Clear,60,2011-11-07 15:55:00
11:15 AM,66.2,51.8,60,30.40,10.0,ENE,6.9,-,N/A,,Clear,60,2011-11-07 16:15:00
11:35 AM,68.0,53.6,60,30.39,10.0,ENE,4.6,-,N/A,,Clear,70,2011-11-07 16:35:00
11:55 AM,68.0,51.8,56,30.38,10.0,NE,5.8,-,N/A,,Clear,40,2011-11-07 16:55:00
12:15 PM,69.8,51.8,53,30.36,10.0,NE,10.4,-,N/A,,Clear,40,2011-11-07 17:15:00
12:35 PM,69.8,51.8,53,30.36,10.0,ENE,4.6,-,N/A,,Clear,70,2011-11-07 17:35:00
12:55 PM,69.8,51.8,53,30.34,10.0,NE,5.8,-,N/A,,Clear,40,2011-11-07 17:55:00
1:15 PM,69.8,51.8,53,30.33,10.0,NNE,3.5,-,N/A,,Clear,20,2011-11-07 18:15:00
1:35 PM,69.8,50.0,49,30.33,10.0,North,3.5,-,N/A,,Clear,10,2011-11-07 18:35:00
1:55 PM,69.8,50.0,49,30.32,10.0,ENE,6.9,-,N/A,,Clear,70,2011-11-07 18:55:00
2:15 PM,69.8,50.0,49,30.31,10.0,East,3.5,-,N/A,,Clear,80,2011-11-07 19:15:00
2:35 PM,69.8,50.0,49,30.31,10.0,Calm,Calm,-,N/A,,Clear,0,2011-11-07 19:35:00
2:55 PM,71.6,50.0,46,30.30,10.0,East,4.6,-,N/A,,Clear,90,2011-11-07 19:55:00
3:15 PM,69.8,50.0,49,30.30,10.0,Calm,Calm,-,N/A,,Clear,0,2011-11-07 20:15:00
3:35 PM,69.8,50.0,49,30.30,10.0,East,3.5,-,N/A,,Clear,80,2011-11-07 20:35:00
3:55 PM,69.8,50.0,49,30.30,10.0,NE,5.8,-,N/A,,Clear,50,2011-11-07 20:55:00
4:15 PM,69.8,50.0,49,30.30,10.0,NE,5.8,-,N/A,,Clear,40,2011-11-07 21:15:00
4:35 PM,69.8,51.8,53,30.30,10.0,ENE,3.5,-,N/A,,Clear,70,2011-11-07 21:35:00
4:55 PM,68.0,51.8,56,30.30,10.0,NE,4.6,-,N/A,,Clear,50,2011-11-07 21:55:00
5:35 PM,62.6,51.8,68,30.30,10.0,North,4.6,-,N/A,,Clear,10,2011-11-07 22:35:00
6:15 PM,60.8,51.8,72,30.31,10.0,North,3.5,-,N/A,,Clear,10,2011-11-07 23:15:00
6:35 PM,59.0,51.8,77,30.31,10.0,NNE,4.6,-,N/A,,Clear,20,2011-11-07 23:35:00
6:55 PM,59.0,51.8,77,30.31,10.0,NE,4.6,-,N/A,,Clear,40,2011-11-07 23:55:00
7:15 PM,59.0,50.0,72,30.31,10.0,NE,4.6,-,N/A,,Clear,40,2011-11-08 00:15:00
7:35 PM,57.2,50.0,77,30.32,10.0,NNE,3.5,-,N/A,,Clear,20,2011-11-08 00:35:00
7:55 PM,57.2,50.0,77,30.32,10.0,NE,3.5,-,N/A,,Clear,40,2011-11-08 00:55:00
8:15 PM,57.2,50.0,77,30.32,10.0,Calm,Calm,-,N/A,,Clear,0,2011-11-08 01:15:00
8:35 PM,53.6,50.0,88,30.32,10.0,Calm,Calm,-,N/A,,Clear,0,2011-11-08 01:35:00
8:55 PM,55.4,50.0,82,30.32,10.0,ENE,4.6,-,N/A,,Clear,60,2011-11-08 01:55:00
9:15 PM,51.8,50.0,94,30.32,10.0,Calm,Calm,-,N/A,,Clear,0,2011-11-08 02:15:00
9:35 PM,51.8,50.0,94,30.32,10.0,Calm,Calm,-,N/A,,Clear,0,2011-11-08 02:35:00
9:55 PM,51.8,50.0,94,30.32,10.0,NE,3.5,-,N/A,,Clear,50,2011-11-08 02:55:00
10:15 PM,51.8,50.0,94,30.32,10.0,Calm,Calm,-,N/A,,Clear,0,2011-11-08 03:15:00
10:55 PM,51.8,50.0,94,30.31,10.0,NE,3.5,-,N/A,,Clear,50,2011-11-08 03:55:00
11:15 PM,51.8,50.0,94,30.30,10.0,ENE,4.6,-,N/A,,Clear,60,2011-11-08 04:15:00
11:35 PM,53.6,50.0,88,30.31,10.0,ENE,4.6,-,N/A,,Clear,60,2011-11-08 04:35:00
11:55 PM,53.6,50.0,88,30.31,10.0,NE,3.5,-,N/A,,Clear,50,2011-11-08 04:55:00